LAN482 SCDA-SCFA

Flight info

Callsign LAN482
Flight time 0h 32m
Altitude 31000
Route ENLUS5B ENLUS ENLUS5A
Aircraft A320/M-SDE3FGHIRWY/LB1

Departure

Time 2026-04-30 03:42
Airport Diego Aracena International Airport (SCDA)

Arrival

Time 2026-04-30 04:15
Airport Andrés Sabella Gálvez International Airport (SCFA)
Time Latitude Longitude Altitude Speed Heading
2026-04-30 03:13 -20.54749 -70.17947 155 ft 0 kts 43°
2026-04-30 03:29 -20.54755 -70.17953 155 ft 3 kts 43°
2026-04-30 03:30 -20.54764 -70.17960 155 ft 0 kts
2026-04-30 03:30 -20.54769 -70.17960 155 ft 2 kts
2026-04-30 03:30 -20.54783 -70.17970 155 ft 3 kts 71°
2026-04-30 03:31 -20.54789 -70.17988 155 ft 3 kts 71°
2026-04-30 03:31 -20.54795 -70.18007 156 ft 3 kts 58°
2026-04-30 03:31 -20.54806 -70.18017 156 ft 0 kts 356°
2026-04-30 03:35 -20.54803 -70.18017 156 ft 1 kts 356°
2026-04-30 03:35 -20.54766 -70.18019 155 ft 9 kts
2026-04-30 03:35 -20.54676 -70.18014 153 ft 17 kts
2026-04-30 03:35 -20.54548 -70.18040 151 ft 21 kts 339°
2026-04-30 03:36 -20.54413 -70.18118 150 ft 23 kts 332°
2026-04-30 03:36 -20.54258 -70.18201 146 ft 27 kts 334°
2026-04-30 03:36 -20.54082 -70.18298 142 ft 30 kts 333°
2026-04-30 03:36 -20.53879 -70.18323 138 ft 31 kts
2026-04-30 03:37 -20.53650 -70.18311 133 ft 34 kts
2026-04-30 03:37 -20.53403 -70.18298 127 ft 39 kts
2026-04-30 03:37 -20.53117 -70.18283 123 ft 43 kts
2026-04-30 03:37 -20.52862 -70.18251 117 ft 28 kts 38°
2026-04-30 03:38 -20.52768 -70.18093 116 ft 26 kts 16°
2026-04-30 03:38 -20.52572 -70.18079 112 ft 32 kts
2026-04-30 03:38 -20.52327 -70.18064 107 ft 38 kts
2026-04-30 03:38 -20.52071 -70.18116 103 ft 29 kts 356°
2026-04-30 03:39 -20.52069 -70.18007 103 ft 19 kts 154°
2026-04-30 03:39 -20.52115 -70.18030 104 ft 9 kts 248°
2026-04-30 03:39 -20.52186 -70.18059 105 ft 10 kts 182°
2026-04-30 03:39 -20.52191 -70.18059 105 ft 0 kts 182°
2026-04-30 03:41 -20.52324 -70.18065 107 ft 52 kts 183°
2026-04-30 03:41 -20.52899 -70.18096 116 ft 113 kts 182°
2026-04-30 03:41 -20.53859 -70.18136 227 ft 152 kts 180°
2026-04-30 03:42 -20.54937 -70.18171 712 ft 156 kts 181°
2026-04-30 03:42 -20.56036 -70.18216 1272 ft 162 kts 182°
2026-04-30 03:42 -20.57261 -70.18293 1609 ft 192 kts 183°
2026-04-30 03:42 -20.58703 -70.18386 1855 ft 226 kts 183°
2026-04-30 03:43 -20.60376 -70.18485 2318 ft 250 kts 183°
2026-04-30 03:43 -20.62148 -70.18585 3103 ft 260 kts 183°
2026-04-30 03:43 -20.63978 -70.18686 3907 ft 267 kts 183°
2026-04-30 03:43 -20.65848 -70.18787 4740 ft 271 kts 183°
2026-04-30 03:44 -20.67751 -70.18861 5508 ft 276 kts 182°
2026-04-30 03:44 -20.69682 -70.18916 6283 ft 280 kts 181°
2026-04-30 03:44 -20.71643 -70.18969 6982 ft 284 kts 181°
2026-04-30 03:44 -20.73633 -70.19021 7684 ft 288 kts 182°
2026-04-30 03:45 -20.75655 -70.19075 8393 ft 292 kts 182°
2026-04-30 03:45 -20.77704 -70.19129 9110 ft 297 kts 182°
2026-04-30 03:45 -20.79781 -70.19185 9821 ft 301 kts 182°
2026-04-30 03:45 -20.81901 -70.19241 10333 ft 312 kts 182°
2026-04-30 03:46 -20.84139 -70.19302 10593 ft 331 kts 182°
2026-04-30 03:46 -20.85687 -70.19344 10830 ft 340 kts 182°
2026-04-30 03:46 -20.88905 -70.19429 11545 ft 349 kts 182°
2026-04-30 03:46 -20.90514 -70.19472 11938 ft 352 kts 182°
2026-04-30 03:47 -20.92989 -70.19537 12564 ft 357 kts 182°
2026-04-30 03:47 -20.95484 -70.19604 13202 ft 361 kts 182°
2026-04-30 03:47 -20.98833 -70.19693 14025 ft 366 kts 182°
2026-04-30 03:47 -21.01386 -70.19761 14641 ft 369 kts 182°
2026-04-30 03:48 -21.03124 -70.19807 15082 ft 370 kts 182°
2026-04-30 03:48 -21.05711 -70.19876 15730 ft 373 kts 182°
2026-04-30 03:48 -21.08313 -70.19945 16370 ft 375 kts 182°
2026-04-30 03:48 -21.10933 -70.20016 17007 ft 378 kts 182°
2026-04-30 03:49 -21.13573 -70.20086 17624 ft 381 kts 182°
2026-04-30 03:49 -21.16225 -70.20157 18315 ft 380 kts 182°
2026-04-30 03:49 -21.18885 -70.20228 18781 ft 385 kts 182°
2026-04-30 03:49 -21.21585 -70.20300 19219 ft 390 kts 183°
2026-04-30 03:50 -21.24313 -70.20374 19686 ft 394 kts 183°
2026-04-30 03:50 -21.27069 -70.20448 20195 ft 398 kts 183°
2026-04-30 03:50 -21.29811 -70.20522 20690 ft 401 kts 183°
2026-04-30 03:50 -21.32652 -70.20598 21197 ft 405 kts 184°
2026-04-30 03:51 -21.35483 -70.20674 21699 ft 409 kts 184°
2026-04-30 03:51 -21.38348 -70.20751 22191 ft 413 kts 184°
2026-04-30 03:51 -21.41197 -70.20828 22684 ft 417 kts 184°
2026-04-30 03:51 -21.44116 -70.20906 23183 ft 422 kts 184°
2026-04-30 03:52 -21.47100 -70.20986 23661 ft 426 kts 185°
2026-04-30 03:52 -21.50073 -70.21066 24081 ft 429 kts 185°
2026-04-30 03:52 -21.53028 -70.21146 24502 ft 432 kts 185°
2026-04-30 03:52 -21.56039 -70.21226 24925 ft 434 kts 185°
2026-04-30 03:53 -21.59071 -70.21308 25359 ft 437 kts 185°
2026-04-30 03:53 -21.62157 -70.21391 25776 ft 440 kts 185°
2026-04-30 03:53 -21.65225 -70.21473 26178 ft 442 kts 185°
2026-04-30 03:53 -21.68265 -70.21555 26566 ft 445 kts 185°
2026-04-30 03:54 -21.71375 -70.21639 26888 ft 448 kts 185°
2026-04-30 03:54 -21.74492 -70.21723 26962 ft 448 kts 185°
2026-04-30 03:54 -21.77610 -70.21806 26966 ft 448 kts 185°
2026-04-30 03:54 -21.80726 -70.21890 26966 ft 449 kts 185°
2026-04-30 03:55 -21.83835 -70.21973 26770 ft 445 kts 185°
2026-04-30 03:55 -21.86909 -70.22055 26474 ft 437 kts 185°
2026-04-30 03:55 -21.89897 -70.22246 26303 ft 424 kts 190°
2026-04-30 03:55 -21.92785 -70.22644 26129 ft 413 kts 192°
2026-04-30 03:56 -21.95600 -70.23083 25846 ft 406 kts 192°
2026-04-30 03:56 -21.98384 -70.23526 25485 ft 402 kts 192°
2026-04-30 03:56 -22.01147 -70.23965 25021 ft 401 kts 192°
2026-04-30 03:56 -22.03907 -70.24403 24545 ft 401 kts 192°
2026-04-30 03:57 -22.06670 -70.24839 24079 ft 401 kts 192°
2026-04-30 03:57 -22.09433 -70.25275 23617 ft 401 kts 192°
2026-04-30 03:57 -22.12186 -70.25708 23082 ft 400 kts 192°
2026-04-30 03:57 -22.14935 -70.26141 22541 ft 399 kts 191°
2026-04-30 03:58 -22.17676 -70.26572 22008 ft 397 kts 191°
2026-04-30 03:58 -22.20409 -70.27002 21493 ft 396 kts 191°
2026-04-30 03:58 -22.23129 -70.27431 20980 ft 394 kts 191°
2026-04-30 03:58 -22.25841 -70.27858 20476 ft 392 kts 190°
2026-04-30 03:59 -22.28532 -70.28282 19981 ft 390 kts 190°
2026-04-30 03:59 -22.31214 -70.28704 19493 ft 388 kts 190°
2026-04-30 03:59 -22.33882 -70.29125 19013 ft 386 kts 189°
2026-04-30 03:59 -22.36533 -70.29543 18542 ft 384 kts 189°
2026-04-30 04:00 -22.39168 -70.29959 18047 ft 382 kts 189°
2026-04-30 04:00 -22.41788 -70.30372 17513 ft 379 kts 189°
2026-04-30 04:00 -22.44390 -70.30783 16988 ft 377 kts 189°
2026-04-30 04:00 -22.46974 -70.31191 16473 ft 374 kts 189°
2026-04-30 04:01 -22.49544 -70.31597 15966 ft 372 kts 189°
2026-04-30 04:01 -22.52098 -70.32001 15471 ft 370 kts 188°
2026-04-30 04:01 -22.54637 -70.32402 14981 ft 368 kts 188°
2026-04-30 04:01 -22.57159 -70.32801 14497 ft 365 kts 188°
2026-04-30 04:02 -22.59668 -70.33198 14018 ft 363 kts 188°
2026-04-30 04:02 -22.62161 -70.33593 13518 ft 361 kts 188°
2026-04-30 04:02 -22.64637 -70.33985 13000 ft 359 kts 188°
2026-04-30 04:02 -22.67101 -70.34375 12482 ft 357 kts 188°
2026-04-30 04:03 -22.69547 -70.34762 11970 ft 354 kts 188°
2026-04-30 04:03 -22.71981 -70.35148 11469 ft 352 kts 188°
2026-04-30 04:03 -22.74398 -70.35532 10976 ft 350 kts 188°
2026-04-30 04:03 -22.76802 -70.35913 10493 ft 348 kts 188°
2026-04-30 04:04 -22.79164 -70.36288 10024 ft 346 kts 188°
2026-04-30 04:04 -22.81540 -70.36665 9515 ft 344 kts 188°
2026-04-30 04:04 -22.83897 -70.37039 8992 ft 341 kts 188°
2026-04-30 04:04 -22.86230 -70.37410 8527 ft 336 kts 188°
2026-04-30 04:05 -22.88520 -70.37759 8170 ft 328 kts 187°
2026-04-30 04:05 -22.90771 -70.38042 7726 ft 324 kts 186°
2026-04-30 04:05 -22.93005 -70.38304 7254 ft 321 kts 186°
2026-04-30 04:05 -22.95217 -70.38560 6789 ft 318 kts 186°
2026-04-30 04:06 -22.97411 -70.38815 6330 ft 315 kts 186°
2026-04-30 04:06 -22.99563 -70.39066 6041 ft 305 kts 186°
2026-04-30 04:06 -23.01623 -70.39306 5934 ft 291 kts 186°
2026-04-30 04:06 -23.03603 -70.39538 5672 ft 283 kts 186°
2026-04-30 04:07 -23.05540 -70.39764 5332 ft 279 kts 185°
2026-04-30 04:07 -23.07458 -70.39997 4972 ft 276 kts 186°
2026-04-30 04:07 -23.09360 -70.40234 4596 ft 274 kts 186°
2026-04-30 04:08 -23.13113 -70.40686 4022 ft 269 kts 186°
2026-04-30 04:08 -23.14971 -70.40909 3997 ft 269 kts 186°
2026-04-30 04:08 -23.16793 -70.41129 3998 ft 255 kts 186°
2026-04-30 04:08 -23.18503 -70.41337 3943 ft 241 kts 186°
2026-04-30 04:09 -23.20115 -70.41534 3877 ft 224 kts 186°
2026-04-30 04:09 -23.21613 -70.41717 3738 ft 209 kts 186°
2026-04-30 04:09 -23.23007 -70.41887 3590 ft 195 kts 186°
2026-04-30 04:09 -23.24302 -70.42046 3513 ft 179 kts 185°
2026-04-30 04:10 -23.25471 -70.42189 3477 ft 161 kts 185°
2026-04-30 04:10 -23.26566 -70.42322 3403 ft 158 kts 185°
2026-04-30 04:10 -23.27655 -70.42454 3285 ft 157 kts 185°
2026-04-30 04:10 -23.28729 -70.42585 3159 ft 157 kts 185°
2026-04-30 04:11 -23.29815 -70.42717 3023 ft 157 kts 185°
2026-04-30 04:11 -23.30912 -70.42850 2856 ft 156 kts 185°
2026-04-30 04:11 -23.31971 -70.42980 2708 ft 155 kts 185°
2026-04-30 04:11 -23.33041 -70.43111 2698 ft 155 kts 186°
2026-04-30 04:12 -23.34112 -70.43241 2599 ft 155 kts 185°
2026-04-30 04:12 -23.35181 -70.43372 2367 ft 154 kts 185°
2026-04-30 04:12 -23.36240 -70.43501 2098 ft 152 kts 186°
2026-04-30 04:12 -23.37281 -70.43628 1916 ft 145 kts 186°
2026-04-30 04:13 -23.38247 -70.43746 1706 ft 136 kts 187°
2026-04-30 04:13 -23.39180 -70.43860 1450 ft 134 kts 187°
2026-04-30 04:13 -23.40107 -70.43974 1247 ft 134 kts 187°
2026-04-30 04:13 -23.41030 -70.44096 1029 ft 134 kts 187°
2026-04-30 04:14 -23.41946 -70.44223 812 ft 132 kts 185°
2026-04-30 04:14 -23.42859 -70.44321 595 ft 131 kts 185°
2026-04-30 04:14 -23.43762 -70.44425 415 ft 124 kts 186°
2026-04-30 04:14 -23.44455 -70.44507 385 ft 74 kts 186°
2026-04-30 04:15 -23.44801 -70.44549 370 ft 37 kts 186°
2026-04-30 04:15 -23.45061 -70.44581 362 ft 37 kts 186°
2026-04-30 04:15 -23.45217 -70.44518 359 ft 17 kts 102°
2026-04-30 04:15 -23.45222 -70.44495 358 ft 0 kts 102°
2026-04-30 04:16 -23.45222 -70.44492 359 ft 0 kts 100°
2026-04-30 04:17 -23.45223 -70.44484 355 ft 4 kts 98°
2026-04-30 04:17 -23.45223 -70.44434 361 ft 9 kts 72°
2026-04-30 04:17 -23.45169 -70.44402 366 ft 10 kts
2026-04-30 04:17 -23.45107 -70.44394 362 ft 10 kts
2026-04-30 04:18 -23.45026 -70.44384 364 ft 13 kts
2026-04-30 04:18 -23.44987 -70.44316 365 ft 13 kts 93°
2026-04-30 04:18 -23.44940 -70.44263 368 ft 9 kts 24°
2026-04-30 04:18 -23.44917 -70.44212 369 ft 6 kts 90°
2026-04-30 04:19 -23.44923 -70.44155 369 ft 2 kts 96°
2026-04-30 04:19 -23.44923 -70.44154 369 ft 0 kts 96°